Flag for Brazil

Past Weather in Camaçari, Bahia, Brazil — Yesterday and Last 2 Weeks

Now
79 °F

Partly cloudy.


Feels Like: 81 °F
Forecast: 79 / 67 °F
Wind: 9 mph from Southeast

Location: Salvador Aeroporto

Current Time: Jul 11, 2020 at 10:41:23 pm

Latest Report: Jul 11, 2020 at 10:00 pm


Visibility: N/A

Pressure: 30.07 "Hg

Humidity: 65%

Dew Point: 66 °F

Location of CamaçariLocation

Past Weather in Camaçari — Graph

°F

Camaçari Temperature Yesterday

Maximum temperature yesterday: 82 °F (at 10:00 am)
Minimum temperature yesterday: 73 °F (at 3:00 am)
Average temperature yesterday: 78 °F

High & Low Weather Summary for the Past Weeks

 TemperatureHumidityPressure
High82 °F (Jun 28, 11:00 am)100% (Jun 27, 2:00 am)30.12 "Hg (Jun 27, 2:00 am)
Low68 °F (Jul 2, 4:00 am)48% (Jul 1, 11:00 am)29.89 "Hg (Jul 2, 3:00 pm)
Average77 °F80%30.01 "Hg
* Reported Jun 26 9:00 pm — Jul 11 9:00 pm, Camaçari. Weather by CustomWeather, © 2020

Note: Actual official high and low records may vary slightly from our data, if they occured in-between our weather recording intervals... More about our weather records

Camaçari Weather History for the Previous 24 Hours

Scroll right to see more
 ConditionsComfort  
Time TempWeatherWind HumidityBarometerVisibility
9:00 pm
Sat, Jul 11
79 °FPartly cloudy.9 mph65%30.07 "HgN/A
8:00 pm79 °FPartly cloudy.10 mph65%30.04 "HgN/A
7:00 pm77 °FPartly cloudy.12 mph69%30.04 "HgN/A
6:00 pm73 °FPartly cloudy.3 mph89%30.04 "HgN/A
5:00 pm73 °FScattered showers. Partly sunny.5 mph94%30.04 "Hg5 mi
4:00 pm73 °FLight rain. Fog.9 mph94%30.04 "Hg3 mi
3:40 pm73 °FLight rain. Fog.12 mph94%30.04 "Hg2 mi
3:00 pm77 °FScattered showers. Broken clouds.7 mph79%30.04 "HgN/A
2:00 pm73 °FFog.5 mph94%30.04 "Hg3 mi
1:40 pm73 °FLight rain. Broken clouds.3 mph94%30.04 "Hg3 mi
1:00 pm75 °FLight rain. Broken clouds.7 mph89%30.07 "Hg2 mi
12:00 pm81 °FScattered showers. Partly sunny.13 mph70%30.09 "Hg6 mi
11:00 am81 °FScattered showers. Scattered clouds.13 mph70%30.09 "HgN/A
10:00 am81 °FScattered clouds.13 mph66%30.12 "HgN/A
9:00 am79 °FScattered clouds.13 mph70%30.09 "HgN/A
8:00 am79 °FScattered clouds.10 mph65%30.09 "HgN/A
7:00 am77 °FScattered clouds.12 mph65%30.07 "HgN/A
6:00 am77 °FScattered clouds.12 mph69%30.07 "HgN/A
5:00 am77 °FPassing clouds.13 mph69%30.07 "HgN/A
4:00 am77 °FPassing clouds.13 mph69%30.04 "HgN/A
3:00 am77 °FPassing clouds.12 mph69%30.04 "HgN/A
2:00 am77 °FPassing clouds.10 mph74%30.07 "HgN/A
1:00 am77 °FPassing clouds.9 mph74%30.07 "HgN/A
12:00 am77 °FPassing clouds.9 mph74%30.07 "HgN/A
11:00 pm
Fri, Jul 10
77 °FPartly cloudy.5 mph79%30.09 "HgN/A
10:00 pm77 °FPartly cloudy.5 mph79%30.09 "HgN/A
Weather by CustomWeather, © 2020

See weather overview